Weather Roundup
Issued by NWS

Home | Current Version | Previous Version | Graphics & Text | Print | Product List | Glossary Off
Versions: 1 2 3 4 5 6 7 8 9 10 11 12 13 14 15 16 17 18 19 20 21 22 23 24 25 26 27 28 29 30 31 32 33 34 35 36 37 38 39 40 41 42 43 44 45 46 47 48 49 50

000
NZUS93 KARX 221510
HRRWXR

CURRENT HOURLY OBSERVATIONS ACROSS
MUCH OF THE UPPER MISSISSIPPI VALLEY
NATIONAL WEATHER SERVICE LA CROSSE WI
900 AM CST WED NOV 22 2017


...SOUTHEAST MINNESOTA...


CITY           SKY/WX    TMP DP  RH WIND       PRES   REMARKS
ROCHESTER      CLOUDY    18  13  80 SW6       30.33R WCI  10
ROCHESTER/MAYO FAIR      20  13  76 W3        30.33S
WINONA         SUNNY     21  12  68 CALM      30.37S
AUSTIN         CLOUDY    18  12  79 CALM      30.32S
ALBERT LEA     CLOUDY    18  12  79 S5        30.32S WCI  11
DODGE CENTER   SUNNY     18  12  79 S5        30.31S WCI  11
PRESTON        CLOUDY    17  11  78 CALM      30.34R
OWATONNA       CLOUDY    18  12  79 S5        30.31F WCI  11
FARIBAULT      CLOUDY    18  14  86 S7        30.31F WCI   8
$$

...ELSEWHERE IN MINNESOTA...


CITY           SKY/WX    TMP DP  RH WIND       PRES   REMARKS
MINNEAPOLIS    CLOUDY    19  13  77 S6        30.31F WCI  11
INTNL FALLS      N/A      8   4  83 S3        30.12F
DULUTH         MOSUNNY   12  10  92 W3        30.19F
RED WING       CLOUDY    19  10  68 W3        30.33S
REDWOOD FALLS  MOSUNNY   17   9  70 S9        30.29S WCI   6
MANKATO        CLOUDY    16  12  84 S8        30.32F WCI   5
WORTHINGTON    CLOUDY    18  10  71 S14       30.27F WCI   4
FAIRMONT       SUNNY     18  12  77 S8        30.31F WCI   8
$$

...SOUTHWEST WISCONSIN...


CITY           SKY/WX    TMP DP  RH WIND       PRES   REMARKS
LA CROSSE      SUNNY     22  10  60 CALM      30.37S
PRAIRIE DU CHI SUNNY     21  13  68 CALM      30.38S
BOSCOBEL       SUNNY     22  15  75 CALM      30.38S
LONE ROCK      SUNNY     21  15  78 W3        30.38R
PLATTEVILLE    SUNNY     21  18  86 W5        30.36R WCI  15
FORT MC COY    CLOUDY    19  13  76 CALM      30.36S
CAMP DOUGLAS   SUNNY     19  12  73 W5        30.35R WCI  13
MAUSTON-NEW LI CLOUDY    20  13  74 W5        30.35R WCI  13
VIROQUA        FAIR      18  14  83 CALM      30.32S
WIS DELLS      SUNNY     20  12  71 CALM      30.35R
$$

...ELSEWHERE IN WISCONSIN...


CITY           SKY/WX    TMP DP  RH WIND       PRES   REMARKS
MILWAUKEE      MOSUNNY   26  15  63 NW6       30.34R WCI  19
MADISON        SUNNY     21  13  71 W3        30.35R
GREEN BAY      CLOUDY    26  16  65 W8        30.31S WCI  18
EAU CLAIRE     CLOUDY    17  11  77 W3        30.33F
BLACK RVR FLS  FAIR      19  11  71 CALM      30.34F
MEDFORD        SUNNY     16  10  77 SW3       30.25F
WAUSAU         SUNNY     19  10  68 W5        30.28S WCI  12
WIS RAPIDS     SUNNY     20  13  74 NW6       30.34R WCI  12
MARSHFIELD     SUNNY     18  11  74 W7        30.28F WCI   9
RICE LAKE      CLOUDY    17  13  81 S6        30.31R WCI   9
$$

...NORTHEAST IOWA...


CITY           SKY/WX    TMP DP  RH WIND       PRES   REMARKS
WATERLOO       CLOUDY    20  13  74 W5        30.38S WCI  13
DUBUQUE        SUNNY     22  15  75 W3        30.36R
DECORAH        CLOUDY    18  12  79 CALM      30.34R
MASON CITY     CLOUDY    18  13  80 S3        30.36R
CHARLES CITY   CLOUDY    19  16  86 CALM      30.36S
OELWEIN        SUNNY     19  16  86 CALM      30.36S
$$

...ELSEWHERE IN IOWA...


CITY           SKY/WX    TMP DP  RH WIND       PRES   REMARKS
DES MOINES     CLOUDY    21  13  71 SW5       30.41R WCI  15
IOWA CITY      SUNNY     24  14  65 NW3       30.42R
FORT DODGE     NOT AVBL
MARSHALLTOWN   CLOUDY    19  14  81 W3        30.38R
CEDAR RAPIDS   SUNNY     20  15  81 NW6       30.38R WCI  12
$$

...NORTHERN ILLINOIS...


CITY           SKY/WX    TMP DP  RH WIND       PRES   REMARKS
CHICAGO-OHARE  MOSUNNY   26  13  57 NW7       30.36R WCI  18
CHICAGO-MIDWAY MOSUNNY   27  15  61 NW7       30.37R WCI  19
MOLINE         SUNNY     25  16  68 W5        30.39S WCI  19
ROCKFORD       SUNNY     25  14  63 CALM      30.38R
PEORIA         SUNNY     26  17  68 NW5       30.40S WCI  20
$$

NOTE: "FAIR" INDICATES FEW OR NO CLOUDS BELOW 12,000 FEET WITH NO
SIGNIFICANT WEATHER AND/OR OBSTRUCTIONS TO VISIBILITY. WIND
SPEEDS ARE IN MILES-PER-HOUR.




USA.gov is the U.S. government's official web portal to all federal, state and local government web resources and services.